Radiation Dose at Monitoring Post of Fukushima Daini Nuclear Power Station
Date,Time,MP-1(microSv/h),MP-2(microSv/h),MP-3(microSv/h),MP-4(microSv/h),MP-5(microSv/h),MP-6(microSv/h),MP-7(microSv/h),Wind Direction,Wind Velocity(m/s),Rain
2015/10/03,00:00,0.484,0.279,0.501,0.462,0.447,0.227,0.196,south,3.8,No
2015/10/03,00:10,0.487,0.282,0.501,0.460,0.449,0.226,0.196,south,2.8,No
2015/10/03,00:20,0.484,0.278,0.500,0.461,0.451,0.226,0.197,south-southwest,3.8,No
2015/10/03,00:30,0.486,0.281,0.499,0.457,0.449,0.226,0.195,south-southwest,4.8,No
2015/10/03,00:40,0.483,0.280,0.500,0.461,0.450,0.226,0.196,south-southwest,5.9,No
2015/10/03,00:50,0.486,0.280,0.500,0.457,0.448,0.225,0.195,southwest,5.1,No
2015/10/03,01:00,0.484,0.280,0.498,0.461,0.451,0.227,0.195,southwest,4.7,No
2015/10/03,01:10,0.485,0.279,0.498,0.459,0.448,0.227,0.196,southwest,3.6,No
2015/10/03,01:20,0.487,0.281,0.501,0.462,0.452,0.226,0.196,south-southwest,3.2,No
2015/10/03,01:30,0.483,0.279,0.499,0.459,0.447,0.226,0.196,southwest,3.2,No
2015/10/03,01:40,0.486,0.281,0.501,0.459,0.451,0.226,0.196,southwest,4.4,No
2015/10/03,01:50,0.485,0.279,0.500,0.459,0.449,0.226,0.195,southwest,4.2,No
2015/10/03,02:00,0.486,0.281,0.499,0.460,0.451,0.225,0.197,southwest,4.8,No
2015/10/03,02:10,0.483,0.279,0.499,0.460,0.448,0.227,0.196,west-southwest,5.9,No
2015/10/03,02:20,0.487,0.282,0.500,0.458,0.450,0.225,0.195,west-southwest,7.3,No
2015/10/03,02:30,0.484,0.278,0.499,0.459,0.447,0.226,0.196,southwest,5.6,No
2015/10/03,02:40,0.488,0.280,0.501,0.458,0.450,0.226,0.195,west-southwest,6.4,No
2015/10/03,02:50,0.483,0.280,0.499,0.461,0.448,0.226,0.196,west-southwest,6.2,No
2015/10/03,03:00,0.487,0.279,0.501,0.459,0.450,0.226,0.196,west-southwest,5.2,No
2015/10/03,03:10,0.482,0.279,0.497,0.460,0.450,0.226,0.195,southwest,5.8,No
2015/10/03,03:20,0.485,0.279,0.502,0.458,0.448,0.226,0.197,southwest,5.0,No
2015/10/03,03:30,0.484,0.281,0.497,0.461,0.449,0.225,0.196,southwest,5.1,No
2015/10/03,03:40,0.487,0.278,0.501,0.458,0.447,0.225,0.196,west-southwest,5.3,No
2015/10/03,03:50,0.484,0.280,0.499,0.461,0.452,0.227,0.195,west-southwest,6.0,No
2015/10/03,04:00,0.487,0.279,0.502,0.459,0.447,0.224,0.195,west-southwest,5.1,No
2015/10/03,04:10,0.484,0.279,0.497,0.461,0.453,0.226,0.195,west-southwest,4.9,No
2015/10/03,04:20,0.484,0.281,0.503,0.459,0.447,0.225,0.196,west-southwest,3.9,No
2015/10/03,04:30,0.485,0.278,0.497,0.460,0.451,0.226,0.195,west-southwest,4.3,No
2015/10/03,04:40,0.487,0.280,0.502,0.460,0.449,0.226,0.196,west-southwest,4.7,No
2015/10/03,04:50,0.486,0.279,0.498,0.458,0.450,0.227,0.195,west-southwest,3.6,No
2015/10/03,05:00,0.484,0.280,0.502,0.463,0.447,0.226,0.195,west-southwest,2.7,No
2015/10/03,05:10,0.488,0.281,0.499,0.458,0.449,0.225,0.196,southwest,4.2,No
2015/10/03,05:20,0.483,0.279,0.501,0.462,0.452,0.227,0.195,west-southwest,4.3,No
2015/10/03,05:30,0.487,0.282,0.499,0.458,0.449,0.227,0.196,west-southwest,4.4,No
2015/10/03,05:40,0.484,0.280,0.501,0.461,0.449,0.227,0.195,west-southwest,5.2,No
2015/10/03,05:50,0.488,0.281,0.499,0.459,0.447,0.225,0.195,west-southwest,4.8,No
2015/10/03,06:00,0.483,0.280,0.499,0.460,0.448,0.226,0.195,southwest,5.3,No
2015/10/03,06:10,0.486,0.280,0.499,0.460,0.446,0.227,0.195,southwest,3.5,No
2015/10/03,06:20,0.484,0.280,0.499,0.461,0.452,0.226,0.196,southwest,3.6,No
2015/10/03,06:30,0.487,0.279,0.499,0.460,0.446,0.227,0.195,southwest,4.4,No
2015/10/03,06:40,0.484,0.281,0.498,0.459,0.451,0.225,0.196,southwest,5.0,No
2015/10/03,06:50,0.485,0.279,0.499,0.459,0.445,0.226,0.195,southwest,5.0,No
2015/10/03,07:00,0.484,0.281,0.501,0.460,0.451,0.225,0.195,west-southwest,4.8,No
2015/10/03,07:10,0.486,0.278,0.497,0.455,0.445,0.226,0.197,west-southwest,4.3,No
2015/10/03,07:20,0.482,0.280,0.500,0.462,0.449,0.225,0.195,southwest,3.5,No
2015/10/03,07:30,0.487,0.279,0.498,0.457,0.449,0.226,0.194,west-southwest,3.9,No
2015/10/03,07:40,0.483,0.281,0.502,0.456,0.445,0.225,0.192,southwest,2.8,No
2015/10/03,07:50,0.485,0.279,0.497,0.460,0.450,0.227,0.195,southwest,2.8,No
2015/10/03,08:00,0.485,0.277,0.500,0.457,0.445,0.226,0.196,west-southwest,2.7,No
2015/10/03,08:10,0.482,0.280,0.501,0.456,0.448,0.225,0.195,west-southwest,2.8,No
2015/10/03,08:20,0.487,0.279,0.495,0.460,0.450,0.226,0.194,southwest,3.3,No
2015/10/03,08:30,0.481,0.276,0.502,0.459,0.445,0.225,0.194,south-southwest,3.0,No
2015/10/03,08:40,0.486,0.275,0.496,0.454,0.448,0.225,0.194,west-southwest,3.4,No
2015/10/03,08:50,0.484,0.278,0.497,0.458,0.449,0.226,0.196,southwest,2.5,No
2015/10/03,09:00,0.483,0.281,0.503,0.462,0.445,0.225,0.195,southwest,2.6,No
2015/10/03,09:10,0.486,0.280,0.498,0.459,0.441,0.226,0.195,east-northeast,2.0,No
2015/10/03,09:20,0.484,0.280,0.502,0.457,0.445,0.227,0.194,north-northeast,1.7,No
2015/10/03,09:30,0.481,0.277,0.500,0.454,0.451,0.226,0.194,north,1.6,No
2015/10/03,09:40,0.486,0.281,0.495,0.453,0.449,0.225,0.197,north-northeast,2.4,No
2015/10/03,09:50,0.486,0.281,0.501,0.463,0.447,0.227,0.196,north-northeast,2.2,No
2015/10/03,10:00,0.482,0.280,0.501,0.462,0.453,0.227,0.196,east-northeast,1.4,No
2015/10/03,10:10,0.478,0.278,0.496,0.458,0.452,0.226,0.194,east-northeast,1.1,No
2015/10/03,10:20,0.486,0.279,0.504,0.458,0.447,0.226,0.195,east-northeast,1.0,No
2015/10/03,10:30,0.488,0.282,0.500,0.462,0.444,0.226,0.197,east-northeast,1.7,No
2015/10/03,10:40,0.483,0.279,0.495,0.460,0.444,0.225,0.196,east-northeast,1.6,No
2015/10/03,10:50,0.481,0.278,0.494,0.460,0.446,0.226,0.196,east-southeast,1.4,No
2015/10/03,11:00,0.481,0.278,0.501,0.459,0.443,0.226,0.194,south-southeast,0.6,No
2015/10/03,11:10,0.481,0.278,0.500,0.457,0.445,0.228,0.195,east-southeast,0.6,No
2015/10/03,11:20,0.481,0.278,0.499,0.458,0.452,0.227,0.195,east,1.2,No
2015/10/03,11:30,0.481,0.278,0.497,0.459,0.454,0.226,0.195,-,CALM,No
2015/10/03,11:40,0.481,0.278,0.496,0.459,0.450,0.227,0.195,east,1.4,No
2015/10/03,11:50,0.481,0.278,0.497,0.459,0.451,0.227,0.194,southeast,1.5,No
2015/10/03,12:00,0.481,0.281,0.497,0.457,0.447,0.226,0.195,east-southeast,1.0,No
2015/10/03,12:10,0.486,0.282,0.496,0.458,0.448,0.226,0.195,east-northeast,1.3,No
2015/10/03,12:20,0.490,0.281,0.496,0.458,0.448,0.227,0.195,east-southeast,2.0,No
2015/10/03,12:30,0.489,0.278,0.496,0.457,0.447,0.227,0.196,east-southeast,2.0,No
2015/10/03,12:40,0.483,0.280,0.498,0.458,0.448,0.226,0.196,southeast,2.5,No
2015/10/03,12:50,0.482,0.278,0.500,0.459,0.445,0.227,0.196,east-southeast,2.1,No
2015/10/03,13:00,0.480,0.279,0.498,0.460,0.447,0.226,0.195,southeast,1.9,No
2015/10/03,13:10,0.481,0.278,0.498,0.459,0.448,0.227,0.194,south-southeast,1.2,No
2015/10/03,13:20,0.481,0.278,0.498,0.460,0.448,0.226,0.194,east-southeast,1.9,No
2015/10/03,13:30,0.489,0.278,0.498,0.460,0.450,0.226,0.196,east-southeast,2.2,No
2015/10/03,13:40,0.488,0.277,0.499,0.460,0.450,0.227,0.196,east-southeast,1.6,No
2015/10/03,13:50,0.486,0.279,0.498,0.460,0.447,0.227,0.195,southeast,1.0,No
2015/10/03,14:00,0.483,0.279,0.500,0.459,0.448,0.227,0.195,southeast,1.6,No
2015/10/03,14:10,0.486,0.280,0.501,0.467,0.449,0.228,0.195,south,2.9,No
2015/10/03,14:20,0.492,0.278,0.498,0.467,0.449,0.227,0.196,south-southeast,2.4,No
2015/10/03,14:30,0.486,0.279,0.499,0.462,0.447,0.229,0.198,south-southeast,1.6,No
2015/10/03,14:40,0.482,0.279,0.498,0.459,0.450,0.228,0.196,south,1.6,No
2015/10/03,14:50,0.489,0.279,0.507,0.465,0.454,0.229,0.198,south,2.2,No
2015/10/03,15:00,0.489,0.283,0.506,0.466,0.453,0.228,0.198,south,2.0,No
2015/10/03,15:10,0.483,0.282,0.500,0.461,0.448,0.230,0.197,south-southwest,2.5,No
2015/10/03,15:20,0.486,0.281,0.502,0.461,0.454,0.228,0.196,south-southwest,2.4,No
2015/10/03,15:30,0.491,0.283,0.505,0.466,0.455,0.229,0.199,south-southwest,2.6,No
2015/10/03,15:40,0.486,0.283,0.499,0.462,0.451,0.227,0.196,south-southwest,2.3,No
2015/10/03,15:50,0.485,0.281,0.501,0.461,0.450,0.227,0.196,south,2.9,No
2015/10/03,16:00,0.492,0.283,0.506,0.468,0.455,0.228,0.198,south,3.2,No
2015/10/03,16:10,0.487,0.281,0.503,0.464,0.451,0.227,0.196,south-southwest,3.0,No
2015/10/03,16:20,0.485,0.280,0.500,0.460,0.447,0.227,0.197,southwest,3.0,No
2015/10/03,16:30,0.493,0.283,0.507,0.468,0.455,0.227,0.198,southwest,2.4,No
2015/10/03,16:40,0.485,0.279,0.500,0.464,0.451,0.226,0.196,west-northwest,5.6,No
2015/10/03,16:50,0.486,0.283,0.500,0.460,0.449,0.227,0.198,west-northwest,4.8,No
2015/10/03,17:00,0.492,0.282,0.505,0.466,0.455,0.227,0.196,west,2.1,No
2015/10/03,17:10,0.485,0.281,0.500,0.461,0.451,0.228,0.195,west,2.5,No
2015/10/03,17:20,0.488,0.283,0.503,0.463,0.447,0.227,0.197,west-southwest,3.0,No
2015/10/03,17:30,0.487,0.279,0.503,0.466,0.455,0.228,0.196,west,2.5,No
2015/10/03,17:40,0.483,0.283,0.498,0.459,0.450,0.228,0.197,west-southwest,2.6,No
2015/10/03,17:50,0.489,0.283,0.507,0.466,0.453,0.227,0.195,west-southwest,2.2,No
2015/10/03,18:00,0.486,0.281,0.503,0.464,0.452,0.227,0.197,west-southwest,3.7,No
2015/10/03,18:10,0.488,0.282,0.502,0.462,0.448,0.227,0.196,west-southwest,3.1,No
2015/10/03,18:20,0.488,0.281,0.507,0.466,0.455,0.227,0.197,west-southwest,3.0,No
2015/10/03,18:30,0.485,0.282,0.500,0.460,0.448,0.228,0.197,west-southwest,2.2,No
2015/10/03,18:40,0.489,0.279,0.505,0.466,0.454,0.227,0.197,southwest,3.4,No
2015/10/03,18:50,0.484,0.282,0.501,0.461,0.451,0.228,0.197,southwest,3.0,No
2015/10/03,19:00,0.490,0.281,0.504,0.465,0.451,0.228,0.197,southwest,2.8,No
2015/10/03,19:10,0.487,0.283,0.506,0.465,0.454,0.228,0.197,west-southwest,2.2,No
2015/10/03,19:20,0.487,0.281,0.499,0.462,0.448,0.227,0.197,west-southwest,3.3,No
2015/10/03,19:30,0.486,0.282,0.505,0.464,0.455,0.228,0.197,west,3.2,No
2015/10/03,19:40,0.485,0.282,0.500,0.461,0.448,0.227,0.198,west,2.7,No
2015/10/03,19:50,0.490,0.281,0.505,0.466,0.455,0.228,0.197,west-northwest,2.0,No
2015/10/03,20:00,0.484,0.281,0.501,0.460,0.450,0.226,0.197,northwest,2.2,No
2015/10/03,20:10,0.490,0.281,0.504,0.467,0.453,0.228,0.197,northwest,1.9,No
2015/10/03,20:20,0.485,0.282,0.502,0.461,0.449,0.227,0.197,northwest,1.4,No
2015/10/03,20:30,0.489,0.281,0.504,0.462,0.452,0.228,0.197,northwest,1.7,No
2015/10/03,20:40,0.486,0.282,0.506,0.464,0.450,0.227,0.197,west-northwest,2.1,No
2015/10/03,20:50,0.486,0.282,0.501,0.462,0.450,0.228,0.196,west-northwest,2.0,No
2015/10/03,21:00,0.486,0.280,0.505,0.463,0.452,0.228,0.198,west,2.1,No
2015/10/03,21:10,0.487,0.283,0.500,0.462,0.450,0.227,0.196,west-northwest,3.4,No
2015/10/03,21:20,0.489,0.280,0.507,0.465,0.451,0.228,0.197,west-northwest,4.7,No
2015/10/03,21:30,0.488,0.283,0.502,0.460,0.450,0.227,0.197,west-northwest,4.7,No
2015/10/03,21:40,0.487,0.281,0.504,0.465,0.453,0.227,0.198,west-northwest,8.6,No
2015/10/03,21:50,0.485,0.284,0.503,0.461,0.449,0.228,0.197,west-northwest,8.3,No
2015/10/03,22:00,0.489,0.280,0.502,0.467,0.454,0.227,0.196,west-northwest,5.8,No
2015/10/03,22:10,0.484,0.282,0.505,0.462,0.449,0.228,0.198,west-northwest,6.0,No
2015/10/03,22:20,0.488,0.280,0.499,0.465,0.454,0.228,0.197,west-northwest,6.6,No
2015/10/03,22:30,0.485,0.282,0.505,0.462,0.449,0.228,0.198,west-northwest,6.7,No
2015/10/03,22:40,0.489,0.281,0.501,0.463,0.453,0.227,0.196,west-northwest,5.6,No
2015/10/03,22:50,0.486,0.282,0.505,0.464,0.451,0.228,0.198,northwest,4.7,No
2015/10/03,23:00,0.488,0.280,0.504,0.462,0.452,0.226,0.197,west-northwest,5.0,No
2015/10/03,23:10,0.483,0.282,0.501,0.464,0.452,0.228,0.198,west-northwest,4.4,No
2015/10/03,23:20,0.486,0.281,0.505,0.462,0.451,0.227,0.197,northwest,3.9,No
2015/10/03,23:30,0.488,0.281,0.501,0.465,0.453,0.228,0.198,west-northwest,5.3,No
2015/10/03,23:40,0.487,0.281,0.505,0.461,0.448,0.228,0.197,west,8.0,No
2015/10/03,23:50,0.487,0.283,0.500,0.468,0.452,0.227,0.198,west,2.8,No
